Regional Weather Roundup
Issued by NWS Upton, NY

Current Version | Previous Version | Graphics & Text | Print | Product List | Glossary Off
Versions: 1 2 3 4 5 6 7 8 9 10 11 12 13 14 15 16 17 18 19 20 21 22 23 24 25 26 27 28 29 30 31 32 33 34 35 36 37 38 39 40 41 42 43 44 45 46 47 48 49 50

000
ASUS41 KOKX 301905
RWROKX

REGIONAL WEATHER ROUNDUP
NATIONAL WEATHER SERVICE NEW YORK NY
300 PM EDT SAT AUG 30 2014

NOTE: "FAIR" INDICATES FEW OR NO CLOUDS BELOW 12,000 FEET WITH NO
SIGNIFICANT WEATHER AND/OR OBSTRUCTIONS TO VISIBILITY.

NYZ071-072-176-178-NJZ106-104-302000-
NEW YORK CITY METRO AREA


CITY           SKY/WX    TMP DP  RH WIND       PRES   REMARKS
CENTRAL PARK   CLOUDY    76  60  57 CALM      30.23F
LAGUARDIA APRT PTSUNNY   76  60  57 S12       30.21F
KENNEDY INTL   PTSUNNY   77  62  59 S14       30.23F
NEWARK/LIBERTY CLOUDY    77  62  59 SE9       30.20F
BRNX BOT. GARD   N/A     75  61  60 E12       30.21F
TETERBORO      CLOUDY    78  59  51 S7        30.19F
$$

NYZ177-179-078>081-302000-
LONG ISLAND NEW YORK

CITY           SKY/WX    TMP DP  RH WIND       PRES   REMARKS
FARMINGDALE    PTSUNNY   74  62  66 S13       30.22F
ISLIP          PTSUNNY   74  61  63 S12G18    30.22F
SHIRLEY        PTSUNNY   75  60  59 S10       30.24F
WESTHAMPTON    MOSUNNY   76  60  57 S10       30.25F
MONTAUK POINT    N/A     75  60  59 S6        30.26F
$$

NYZ052-065-067-302000-
HUDSON VALLEY

CITY           SKY/WX    TMP DP  RH WIND       PRES   REMARKS
WHITE PLAINS   PTSUNNY   75  58  55 S6        30.21F
NEWBURGH       PTSUNNY   77  61  57 W12       30.20
MONTGOMERY     CLOUDY    79  59  50 SW10      30.18F
POUGHKEEPSIE   CLOUDY    79  57  46 S9        30.17
ALBANY         MOSUNNY   80  57  45 S16G24    30.14F
$$

NJZ001-105-106-008-010-013-015-019>022-104-302000-
NEW JERSEY

CITY           SKY/WX    TMP DP  RH WIND       PRES   REMARKS
NEWARK/LIBERTY CLOUDY    77  62  59 SE9       30.20F
TETERBORO      CLOUDY    78  59  51 S7        30.19F
CALDWELL       CLOUDY    77  59  53 VRB6      30.20F
MORRISTOWN     CLOUDY    77  61  57 SW6       30.21F
SOMERVILLE     CLOUDY    76  62  62 S6        30.19F
LINDEN         CLOUDY    82  62  52 S5        30.22F
SUSSEX         CLOUDY    77  61  57 SW3       30.20F
ANDOVER          N/A     74  60  61 VRB3      30.21F
TRENTON        CLOUDY    76  62  62 S9        30.20F
MILLVILLE      CLOUDY   N/A N/A N/A S7        30.21F
ATLANTIC CITY  CLOUDY    76  63  64 SE10      30.22F
WRIGHTSTOWN    CLOUDY    76  65  69 S7        30.19F
TOMS RIVER     CLOUDY    75  64  69 S8        30.22F
BELMAR         CLOUDY    73  63  68 S6        30.22F
$$

PAZ047>061-062-071-302000-
EASTERN PENNSYLVANIA

CITY           SKY/WX    TMP DP  RH WIND       PRES   REMARKS
PHILADELPHIA   CLOUDY    79  60  52 S9        30.20F
ALLENTOWN      CLOUDY    75  61  61 S8        30.20F
SCRANTON       CLOUDY    74  61  63 VRB7      30.18F
$$

CTZ002-004>006-009-010-012-RIZ004-006-007-MAZ004-011-015-302000-
SOUTHERN NEW ENGLAND
 IN CT

CITY           SKY/WX    TMP DP  RH WIND       PRES   REMARKS
BRADLEY INTL   PTSUNNY   79  57  46 VRB7      30.19F
HARTFORD       PTSUNNY   76  58  53 S10       30.20F
DANBURY        CLOUDY    74  57  55 S8        30.22F
WTRBRY/OXFORD  NOT AVBL
BRIDGEPORT     CLOUDY    78  60  53 S10       30.22F
MERIDEN        CLOUDY    76  59  55 S13       30.22S
NEW HAVEN      PTSUNNY   77  60  55 S12       30.23F
CHESTER        MOCLDY    73  59  60 S10G16    30.25S
GROTON         MOSUNNY   72  61  68 S13       30.24F
WILLIMANTIC    PTSUNNY   76  57  51 SW10      30.22F

 IN RI

CITY           SKY/WX    TMP DP  RH WIND       PRES   REMARKS
PROVIDENCE     MOSUNNY   73  58  59 SE17G24   30.23F
BLOCK ISLAND   MOSUNNY   72  57  60 S12       30.26F
WESTERLY       SUNNY     72  60  66 S10       30.25F

 IN MA

CITY           SKY/WX    TMP DP  RH WIND       PRES   REMARKS
BOSTON         MOSUNNY   78  53  41 S15       30.19F
WORCESTER      PTSUNNY   71  55  56 SW8G18    30.22F
WESTFIELD      PTSUNNY   79  58  48 S14G20    30.19F
PROVINCETOWN   SUNNY     72  55  56 S12G18    30.24F
NANTUCKET      SUNNY     68  54  60 S8        30.27F
$$

ANZ330-335-338-340-345-350-353-355-302000-
COASTAL MARINE OBSERVATIONS


STATION/POSITION TIME  SKY/WX   TEMP    WIND        PRES    VSBY  WAVE
                                AIR SEA DIR/SP/G                  HT/PER
                 (UTC)          (F)     (DEG/KT/KT) (MB)    (MI)  (FT/S)
NY HARB ENTRANCE NOT AVBL
4S FIRE IS       NOT AVBL
23SW MTP         1900                                 N/A           2/ 8
HUDSON CANYON    1900            73 74  180/  6/  8 1024.0          2/ 9
EXECUTION ROCKS  1900            76 75  190/ 12/ 16   N/A
WESTERN LI SOUND 1900            75     170/  4/ 10   N/A           1/ 2
CENTRAL LI SOUND 1800            72 73  210/ 10/ 12   N/A           1/ 2
EASTERN LI SOUND 1800            71 69  170/ 10/ 14   N/A
ROBBINS REEF     1900            73     160/ 16/ 18   N/A
$$


>>>>>>>>>>>>>>>>>>>>>>>>>>>> KEY <<<<<<<<<<<<<<<<<<<<<<<<<<<
>                                                          <
>     SKY/WX - SKY CONDITION/PRESENT WEATHER               <
>     TMP    - TEMPERATURE IN FAHRENHEIT                   <
>     DP     - DEWPOINT IN FAHRENHEIT                      <
>     RH     - RELATIVE HUMIDITY IN PERCENT                <
>     WIND   - DIRECTION AND SPEED IN MPH                  <
>     PRES   - MEAN SEA LEVEL PRESSURE IN INCHES OF HG     <
>     WCI    - WIND CHILL INDEX                            <
>     VSB    - VISIBILITY IN MILES                         <
>     HX     - HEAT INDEX                                  <
>     TC     - TEMPERATURE IN CELSIUS                      <
>     VRB    - VARIABLE WIND DIRECTION                     <
>                                                          <
>>>>>>>>>>>>>>>>>>>>>>>>>>>> KEY <<<<<<<<<<<<<<<<<<<<<<<<<<<





USA.gov is the U.S. government's official web portal to all federal, state and local government web resources and services.